World > North America > United States > Michigan > Greenville   City of Greenville, Michigan

Greenville, MI Hourly Weather Updates

Feedback E-mail the Weather

Quick Clicks

Greenville, MI Weather Maps

°F °C°F °C
Greenville Weather Map
UTC Time: 4/14/2024, 00:42
Your Time:

Greenville, MI Regional Weather

Expires:202404140100;;697823
ASUS43 KDTX 140010
RWRMI 
MICHIGAN HOURLY REGIONAL WEATHER ROUNDUP
NATIONAL WEATHER SERVICE DETROIT/PONTIAC MI
ISSUED BY NATIONAL WEATHER SERVICE GRAND RAPIDS MI
800 PM EDT SAT APR 13 2024

NOTE: "FAIR" INDICATES FEW OR NO CLOUDS BELOW 12,000 FEET WITH NO
SIGNIFICANT WEATHER AND/OR OBSTRUCTION TO VISIBILITY.


MIZ043>046-050>051-056>058-064>065-071>073-077>080-140100-
SOUTHWEST LOWER MICHIGAN
  
CITY           SKY/WX    TMP DP  RH WIND       PRES   REMARKS
BATTLE CREEK   FAIR      58  31  35 W14       29.94F TC  14           
6HR MIN TEMP:  58; 6HR MAX TEMP:  61;                                

BENTON HARBOR  FAIR      66  36  32 S7        29.91F TC  19           
6HR MIN TEMP:  55; 6HR MAX TEMP:  67;                                

BIG RAPIDS     FAIR      55  20  25 SW6       29.89F TC  13           
6HR MIN TEMP:  54; 6HR MAX TEMP:  58;                                

COLDWATER      FAIR      55  32  43 SW6       29.96F TC  13           
6HR MIN TEMP:  55; 6HR MAX TEMP:  61;                                

HOLLAND        FAIR      59  35  40 S6        29.91F TC  15           
6HR MIN TEMP:  52; 6HR MAX TEMP:  61;                                

GRAND RAPIDS   FAIR      56  33  42 S5        29.92F TC  13           
6HR MIN TEMP:  55; 6HR MAX TEMP:  58;                                

KALAMAZOO      FAIR      58  34  40 S7        29.95F TC  14           
6HR MIN TEMP:  58; 6HR MAX TEMP:  62;                                

MARSHALL       FAIR      55  29  36 SW3       29.95F TC  13           
6HR MIN TEMP:  55; 6HR MAX TEMP:  61;                                

MOUNT PLEASANT FAIR      56  24  29 SW15      29.89F TC  13           
6HR MIN TEMP:  56; 6HR MAX TEMP:  62;                                

MUSKEGON       FAIR      57  31  37 S7        29.91F TC  14           
6HR MIN TEMP:  53; 6HR MAX TEMP:  57;                                

SOUTH HAVEN    FAIR      63  32  31 S6        29.91F TC  17           
6HR MIN TEMP:  52; 6HR MAX TEMP:  64;                                

STURGIS        FAIR      56  32  40 SW7       29.95F TC  14           
6HR MIN TEMP:  56; 6HR MAX TEMP:  62;                                

$$

SKY/WX - Weather  TMP - Temperature  DP - Dew Point  RH - Humidity
WIND - Wind Direction/Speed PRES - Barometric Pressure VSB - Visibility
WCI - Wind Chill Index E13G22 Wind - East Wind 13 mph/Gusts of 22 mph

Trending Headlines

Trending Entertainment Headlines

Greenville Radar Loop

Use the map search tool if you want to place a location marker on the radar map...

Greenville Quick Facts

National Two Day Weather Forecast


E-mail the Greenville Weather Forecast

Voice your opinion or tell us about page issues...